Location: Ferchesar
(52.6477°N, 12.4298°E)
Time: 08:23:49
(UTC+01:00)

Vanguard 1 - Visible Passes

Search period start: 07 December 2021 00:00
Search period end: 17 December 2021 00:00
Orbit: 653 x 3830 km, 34.3° (Epoch: 06 December)

Date Brightness Start Highest point End Pass type
(mag) Time Alt. Az. Time Alt. Az. Time Alt. Az.
07 Dec 13.6 00:49:32 24° ESE 00:49:32 24° ESE 00:55:22 10° ESE visible
07 Dec 13.0 03:02:14 42° S 03:02:14 42° S 03:16:20 10° SE visible
07 Dec 13.2 05:14:56 22° WSW 05:21:40 26° SW 05:33:31 10° S visible
07 Dec14.022:56:29E22:56:29E22:15:34SSWvisible
08 Dec 13.5 01:09:11 27° SE 01:09:11 27° SE 01:16:10 10° ESE visible
08 Dec 13.0 03:21:53 40° SSW 03:21:53 40° SSW 03:36:35 10° SE visible
08 Dec 13.4 05:34:36 18° WSW 05:41:41 22° SW 05:52:29 10° S visible
08 Dec 13.7 20:22:14 10° SSE 20:22:41 11° SSE 20:22:41 11° SSE visible
08 Dec14.023:16:10E23:16:10E22:35:24SWvisible
09 Dec 13.4 01:28:52 30° SE 01:28:52 30° SE 01:36:52 10° ESE visible
09 Dec 13.1 03:41:34 37° SSW 03:41:34 37° SSW 03:56:36 10° SSE visible
09 Dec 13.5 05:54:17 14° WSW 06:01:33 17° SW 06:10:42 10° SSW visible
09 Dec 13.6 20:40:20 10° S 20:42:32 14° S 20:42:32 14° S visible
09 Dec14.023:35:52E23:35:52E22:55:15SWvisible
10 Dec 13.4 01:48:35 32° SE 01:48:35 32° SE 01:57:27 10° ESE visible
10 Dec 13.2 04:01:17 33° SSW 04:01:29 33° SSW 04:16:23 10° SSE visible
10 Dec 13.7 06:14:42 10° WSW 06:21:18 12° WSW 06:27:12 10° SW visible
10 Dec 13.5 20:59:12 10° S 21:02:23 16° S 21:02:23 16° S visible
10 Dec 14.0 23:55:37 11° ESE 23:55:37 11° ESE 23:55:53 10° ESE visible
11 Dec 13.3 02:08:19 33° SSE 02:08:19 33° SSE 02:17:52 10° SE visible
11 Dec 13.3 04:21:02 29° SW 04:21:43 29° SW 04:35:49 10° SSE visible
11 Dec 13.6 19:08:40 10° SE 19:09:32 11° SE 19:09:32 11° SE visible
11 Dec 13.5 21:18:34 10° SSW 21:22:14 18° S 21:22:14 18° S visible
12 Dec 14.0 00:15:22 13° ESE 00:15:22 13° ESE 00:16:44 10° ESE visible
12 Dec 13.3 02:28:05 33° SSE 02:28:05 33° SSE 02:38:08 10° SE visible
12 Dec 13.4 04:40:48 24° SW 04:41:49 24° SW 04:54:48 10° S visible
12 Dec 13.4 19:24:36 10° SSE 19:29:22 15° SE 19:29:22 15° SE visible
12 Dec 13.5 21:38:17 10° SSW 21:42:05 19° SSW 21:42:05 19° SSW visible
13 Dec 13.9 00:35:09 15° ESE 00:35:09 15° ESE 00:37:30 10° ESE visible
13 Dec 13.3 02:47:52 32° S 02:47:52 32° S 02:58:10 10° SE visible
13 Dec 13.5 05:00:35 19° SW 05:01:47 19° SW 05:13:03 10° SSW visible
13 Dec 13.3 19:42:37 10° S 19:49:11 19° SSE 19:49:11 19° SSE visible
13 Dec 13.5 21:58:17 10° SW 22:01:54 20° SSW 22:01:54 20° SSW visible
14 Dec 13.9 00:54:58 17° SE 00:54:58 17° SE 00:58:07 10° ESE visible
14 Dec 13.4 03:07:41 29° S 03:07:41 29° S 03:17:56 10° SSE visible
14 Dec 13.7 05:20:24 14° WSW 05:21:36 14° SW 05:29:58 10° SSW visible
14 Dec 13.2 20:01:29 10° S 20:08:59 24° SSE 20:08:59 24° SSE visible
14 Dec 13.5 22:18:30 10° SW 22:21:42 19° SW 22:21:42 19° SW visible
15 Dec 13.8 01:14:48 18° SE 01:14:48 18° SE 01:18:35 10° SE visible
15 Dec 13.5 03:27:31 26° SSW 03:27:31 26° SSW 03:37:21 10° SSE visible
15 Dec 13.1 20:20:52 10° SSW 20:28:46 27° SSE 20:28:46 27° SSE visible
15 Dec 13.6 22:38:52 10° SW 22:41:29 17° SW 22:41:29 17° SW visible
16 Dec 13.8 01:34:38 19° SE 01:34:38 19° SE 01:38:51 10° SE visible
16 Dec 13.6 03:47:21 22° SSW 03:47:21 22° SSW 03:56:16 10° S visible
16 Dec 13.3 18:27:58 10° SSE 18:34:09 14° SE 18:35:49 13° ESE visible
16 Dec 13.0 20:40:35 10° SSW 20:48:32 30° S 20:48:32 30° S visible
